GW1238 Weather Reports


Display with metric or nautical units.
time (UTC)temp
F
wind
direction
speed
MPH
gust
MPH
rain 1hr
in
rain 24hr
in
rain mn
in
humidity
%
barometer
mb
20260831210833 92 86 2.0 2.0 0.00 0.00 0.00 49 1021.4
20260831210329 92 129 2.0 3.0 0.00 0.00 0.00 48 1021.6
20260831205829 93 123 2.0 2.0 0.00 0.00 0.00 47 1021.6
20260831205325 92 98 2.0 2.0 0.00 0.00 0.00 50 1021.8
20260831204819 92 89 3.0 3.0 0.00 0.00 0.00 52 1021.7
20260831204319 92 117 2.0 2.0 0.00 0.00 0.00 47 1021.7
20260831203818 92 106 2.0 2.0 0.00 0.00 0.00 51 1021.7
20260831203312 91 96 2.0 4.0 0.00 0.00 0.00 52 1021.8
20260831202811 91 114 2.0 3.0 0.00 0.00 0.00 51 1021.8
20260831202306 91 101 2.0 3.0 0.00 0.00 0.00 49 1022.1
20260831201806 91 95 2.0 3.0 0.00 0.00 0.00 50 1021.9
20260831201305 92 100 2.0 3.0 0.00 0.00 0.00 52 1022.1
20260831200801 91 113 2.0 3.0 0.00 0.00 0.00 45 1022.1
20260831200256 91 110 2.0 3.0 0.00 0.00 0.00 50 1022.3
20260831195751 91 124 2.0 3.0 0.00 0.00 0.00 55 1022.3
20260831195247 91 147 2.0 3.0 0.00 0.00 0.00 48 1022.5
20260831194741 91 116 2.0 4.0 0.00 0.00 0.00 51 1022.7
20260831194237 91 98 3.0 4.0 0.00 0.00 0.00 47 1022.5
20260831193730 91 98 2.0 3.0 0.00 0.00 0.00 49 1022.9
20260831193226 91 106 2.0 3.0 0.00 0.00 0.00 55 1022.7
20260831192721 91 100 3.0 3.0 0.00 0.00 0.00 56 1022.9
20260831192216 92 129 1.0 1.0 0.00 0.00 0.00 52 1022.6
20260831191712 92 122 1.0 1.0 0.00 0.00 0.00 54 1022.9
20260831191208 92 117 1.0 1.0 0.00 0.00 0.00 55 1022.6
20260831190703 92 137 0.0 1.0 0.00 0.00 0.00 53 1022.9
20260831190202 92 99 1.0 2.0 0.00 0.00 0.00 53 1022.7
20260831185659 97 158 0.0 1.0 0.00 0.00 0.00 46 1023.1
20260831185154 98 154 0.0 1.0 0.00 0.00 0.00 46 1023.0
20260831184653 96 173 0.0 0.0 0.00 0.00 0.00 50 1023.0
20260831184149 93 156 0.0 0.0 0.00 0.00 0.00 53 1023.1
20260831183648 91 137 0.0 1.0 0.00 0.00 0.00 54 1023.2
20260831183148 90 134 1.0 1.0 0.00 0.00 0.00 59 1023.1
20260831182647 90 120 1.0 2.0 0.00 0.00 0.00 57 1023.2
20260831182143 90 123 1.0 1.0 0.00 0.00 0.00 57 1023.2
20260831181637 91 139 0.0 1.0 0.00 0.00 0.00 58 1023.4
20260831181132 91 149 0.0 1.0 0.00 0.00 0.00 59 1023.4
20260831180627 90 140 0.0 2.0 0.00 0.00 0.00 59 1023.5
20260831180122 91 149 1.0 1.0 0.00 0.00 0.00 59 1023.8
20260831175616 90 151 1.0 2.0 0.00 0.00 0.00 59 1023.7
20260831175114 89 158 0.0 1.0 0.00 0.00 0.00 60 1023.6
20260831174614 89 142 1.0 2.0 0.00 0.00 0.00 62 1023.6
20260831174113 88 137 1.0 2.0 0.00 0.00 0.00 65 1023.8
20260831173612 88 138 2.0 2.0 0.00 0.00 0.00 66 1023.8
20260831173108 88 137 1.0 2.0 0.00 0.00 0.00 66 1023.9
20260831172603 88 124 1.0 1.0 0.00 0.00 0.00 65 1023.8
20260831172057 89 142 1.0 2.0 0.00 0.00 0.00 64 1023.7
20260831171553 91 167 0.0 1.0 0.00 0.00 0.00 64 1023.8
20260831171050 88 198 2.0 2.0 0.00 0.00 0.00 69 1023.8
20260831170546 88 132 2.0 2.0 0.00 0.00 0.00 67 1023.9
20260831170044 89 147 1.0 2.0 0.00 0.00 0.00 66 1023.9
20260831165543 89 140 1.0 1.0 0.00 0.00 0.00 67 1024.1
20260831165040 88 148 1.0 2.0 0.00 0.00 0.00 65 1024.2
20260831164536 90 158 1.0 1.0 0.00 0.00 0.00 64 1024.0
20260831164031 88 159 0.0 2.0 0.00 0.00 0.00 65 1024.4
20260831163526 88 150 1.0 2.0 0.00 0.00 0.00 65 1024.4
20260831163022 88 144 1.0 2.0 0.00 0.00 0.00 67 1024.3
20260831162520 87 140 1.0 2.0 0.00 0.00 0.00 69 1024.3
20260831162018 87 159 1.0 2.0 0.00 0.00 0.00 67 1024.4
20260831161515 90 157 0.0 0.0 0.00 0.00 0.00 66 1024.4
20260831161011 89 159 0.0 0.0 0.00 0.00 0.00 68 1024.4
20260831160510 86 131 0.0 2.0 0.00 0.00 0.00 71 1024.6
20260831160006 88 139 1.0 1.0 0.00 0.00 0.00 67 1024.6
20260831155505 90 153 0.0 0.0 0.00 0.00 0.00 65 1024.8
20260831155001 92 172 0.0 1.0 0.00 0.00 0.00 64 1024.6
20260831154457 91 173 1.0 1.0 0.00 0.00 0.00 64 1024.7
20260831153956 90 170 0.0 1.0 0.00 0.00 0.00 66 1024.6
20260831153451 89 171 0.0 1.0 0.00 0.00 0.00 67 1024.5
20260831152948 90 185 1.0 2.0 0.00 0.00 0.00 67 1024.4
20260831152443 90 161 0.0 1.0 0.00 0.00 0.00 67 1024.6
20260831151938 92 161 0.0 1.0 0.00 0.00 0.00 64 1024.6
20260831151437 91 156 0.0 0.0 0.00 0.00 0.00 64 1024.5
20260831150933 90 169 0.0 0.0 0.00 0.00 0.00 67 1024.8
20260831150428 89 168 0.0 0.0 0.00 0.00 0.00 69 1024.8
20260831145927 87 159 1.0 2.0 0.00 0.00 0.00 70 1024.9
20260831145424 88 152 0.0 0.0 0.00 0.00 0.00 69 1025.0
20260831144919 87 162 0.0 1.0 0.00 0.00 0.00 71 1024.9
20260831144409 87 158 0.0 1.0 0.00 0.00 0.00 72 1024.6
20260831143910 85 139 1.0 2.0 0.00 0.00 0.00 74 1024.9
20260831143405 88 144 0.0 1.0 0.00 0.00 0.00 69 1024.7
20260831142901 89 176 0.0 1.0 0.00 0.00 0.00 69 1024.8
20260831142356 89 172 0.0 1.0 0.00 0.00 0.00 70 1024.7
20260831141855 87 180 0.0 1.0 0.00 0.00 0.00 72 1024.9
20260831141349 87 191 1.0 1.0 0.00 0.00 0.00 73 1024.9
20260831140845 86 162 0.0 1.0 0.00 0.00 0.00 75 1024.8
20260831140339 85 183 0.0 1.0 0.00 0.00 0.00 76 1024.8
20260831135838 85 216 1.0 2.0 0.00 0.00 0.00 73 1024.5
20260831135333 87 175 0.0 1.0 0.00 0.00 0.00 76 1024.7
20260831134828 85 143 0.0 1.0 0.00 0.00 0.00 78 1024.6
20260831134325 85 176 1.0 1.0 0.00 0.00 0.00 80 1024.6
20260831133824 85 174 1.0 2.0 0.00 0.00 0.00 83 1024.6
20260831133324 84 172 0.0 1.0 0.00 0.00 0.00 84 1024.7
20260831132820 82 127 1.0 1.0 0.00 0.00 0.00 85 1024.7
20260831132315 85 168 0.0 1.0 0.00 0.00 0.00 83 1024.7
20260831131814 84 155 0.0 1.0 0.00 0.00 0.00 81 1024.8
20260831131311 85 159 0.0 1.0 0.00 0.00 0.00 82 1024.6
20260831130805 84 165 0.0 1.0 0.00 0.00 0.00 84 1024.7
20260831130301 85 171 1.0 1.0 0.00 0.00 0.00 84 1024.8
20260831125800 83 147 0.0 1.0 0.00 0.00 0.00 85 1024.5
20260831125256 83 160 0.0 0.0 0.00 0.00 0.00 91 1024.5
20260831124755 81 153 0.0 1.0 0.00 0.00 0.00 92 1024.4
20260831124252 79 160 0.0 1.0 0.00 0.00 0.00 96 1024.5
20260831123752 79 163 0.0 0.0 0.00 0.00 0.00 98 1024.3
20260831123251 77 135 0.0 0.0 0.00 0.00 0.00 99 1024.4
20260831122745 76 59 0.0 0.0 0.00 0.00 0.00 99 1024.3
20260831122241 75 101 0.0 0.0 0.00 0.00 0.00 99 1024.4
20260831121740 75 82 0.0 1.0 0.00 0.00 0.00 99 1024.1
20260831121237 74 345 1.0 1.0 0.00 0.00 0.00 99 1024.1
20260831120733 74 17 1.0 2.0 0.00 0.00 0.00 99 1024.1
20260831120232 74 342 1.0 1.0 0.00 0.00 0.00 99 1024.0
20260831115728 73 336 1.0 1.0 0.00 0.00 0.00 99 1024.1
20260831115224 73 340 1.0 2.0 0.00 0.00 0.00 99 1024.2
20260831114723 73 331 2.0 2.0 0.00 0.00 0.00 99 1023.8
20260831114222 73 335 1.0 3.0 0.00 0.00 0.00 99 1024.0
20260831113718 73 347 1.0 2.0 0.00 0.00 0.00 99 1023.8
20260831113213 73 339 1.0 2.0 0.00 0.00 0.00 99 1023.9
20260831112712 73 341 1.0 2.0 0.00 0.00 0.00 99 1023.9
20260831112207 73 336 1.0 2.0 0.00 0.00 0.00 99 1023.8
20260831111703 73 352 1.0 2.0 0.00 0.00 0.00 99 1023.6
20260831111159 73 335 2.0 2.0 0.00 0.00 0.00 99 1023.7
20260831110654 72 344 2.0 2.0 0.00 0.00 0.00 99 1023.7
20260831110144 73 315 1.0 2.0 0.00 0.00 0.00 99 1023.3
20260831105643 73 344 1.0 2.0 0.00 0.00 0.00 99 1023.4
20260831105138 73 334 2.0 3.0 0.00 0.00 0.00 99 1023.3
20260831104633 73 332 2.0 2.0 0.00 0.00 0.00 99 1023.3
20260831104130 73 341 2.0 2.0 0.00 0.00 0.00 99 1023.4
20260831103624 73 350 2.0 2.0 0.00 0.00 0.00 99 1023.3
20260831103120 73 330 1.0 2.0 0.00 0.00 0.00 99 1023.2
20260831102615 73 353 1.0 1.0 0.00 0.00 0.00 99 1023.4
20260831102110 73 357 1.0 3.0 0.00 0.00 0.00 99 1023.1
20260831101609 73 338 1.0 2.0 0.00 0.00 0.00 99 1023.3
20260831101105 73 352 1.0 2.0 0.00 0.00 0.00 99 1023.1
20260831100600 72 340 2.0 2.0 0.00 0.00 0.00 99 1023.2
20260831100052 72 356 2.0 2.0 0.00 0.00 0.00 99 1022.9
20260831095549 73 336 2.0 3.0 0.00 0.00 0.00 99 1022.9
20260831095044 73 341 1.0 2.0 0.00 0.00 0.00 99 1023.0
20260831094541 73 348 1.0 2.0 0.00 0.00 0.00 99 1022.9
20260831094036 73 326 1.0 2.0 0.00 0.00 0.00 99 1022.9
20260831093531 73 341 1.0 2.0 0.00 0.00 0.00 99 1022.6
20260831093027 73 326 1.0 2.0 0.00 0.00 0.00 99 1022.5
20260831092522 72 340 2.0 3.0 0.00 0.00 0.00 99 1022.7
20260831092018 72 344 2.0 3.0 0.00 0.00 0.00 98 1022.7
20260831091513 73 349 1.0 2.0 0.00 0.00 0.00 98 1022.6
20260831091009 73 337 2.0 2.0 0.00 0.00 0.00 98 1022.5
20260831090504 73 336 1.0 2.0 0.00 0.00 0.00 98 1022.4
20260831090000 73 337 2.0 2.0 0.00 0.00 0.00 98 1022.6
20260831085455 73 338 2.0 2.0 0.00 0.00 0.00 98 1022.7
20260831084954 73 346 2.0 2.0 0.00 0.00 0.00 98 1022.6
20260831084450 73 337 2.0 2.0 0.00 0.00 0.00 98 1022.4
20260831083947 73 322 2.0 2.0 0.00 0.00 0.00 97 1022.4
20260831083442 73 339 2.0 2.0 0.00 0.00 0.00 97 1022.5
20260831082941 73 346 2.0 2.0 0.00 0.00 0.00 98 1022.5
20260831082436 73 0 1.0 3.0 0.00 0.00 0.00 97 1022.2
20260831081931 73 341 1.0 2.0 0.00 0.00 0.00 97 1022.5
20260831081427 73 352 1.0 2.0 0.00 0.00 0.00 97 1022.5
20260831080923 73 345 2.0 2.0 0.00 0.00 0.00 97 1022.4
20260831080417 73 328 1.0 2.0 0.00 0.00 0.00 97 1022.4
20260831075913 73 344 2.0 2.0 0.00 0.00 0.00 97 1022.5
20260831075408 73 331 2.0 3.0 0.00 0.00 0.00 96 1022.7
20260831074909 73 336 2.0 2.0 0.00 0.00 0.00 96 1022.5
20260831074408 74 340 2.0 2.0 0.00 0.00 0.00 97 1022.3
20260831073903 73 345 2.0 2.0 0.00 0.00 0.00 97 1022.3
20260831073402 74 349 1.0 1.0 0.00 0.00 0.00 97 1022.4
20260831072857 74 324 2.0 3.0 0.00 0.00 0.00 96 1022.2
20260831072353 73 341 1.0 2.0 0.00 0.00 0.00 97 1022.4
20260831071849 74 340 2.0 2.0 0.00 0.00 0.00 96 1022.4
20260831071348 74 30 1.0 2.0 0.00 0.00 0.00 96 1022.6
20260831070843 74 348 2.0 2.0 0.00 0.00 0.00 96 1022.5
20260831070342 74 339 2.0 3.0 0.00 0.00 0.00 96 1022.6
20260831065841 73 324 2.0 2.0 0.00 0.00 0.00 96 1022.5
20260831065339 74 1 1.0 3.0 0.00 0.00 0.00 96 1022.7
20260831064835 74 6 2.0 3.0 0.00 0.00 0.00 96 1022.5
20260831064330 74 338 2.0 2.0 0.00 0.00 0.00 96 1022.7
20260831063826 74 340 2.0 3.0 0.00 0.00 0.00 96 1022.7
20260831063327 74 330 2.0 2.0 0.00 0.00 0.00 96 1022.5
20260831062826 74 339 2.0 2.0 0.00 0.00 0.00 95 1022.4
20260831062322 74 332 2.0 2.0 0.00 0.00 0.00 96 1022.4
20260831061820 74 334 2.0 2.0 0.00 0.00 0.00 96 1022.4
20260831061320 74 336 2.0 2.0 0.00 0.00 0.00 95 1022.7
20260831060816 74 336 2.0 2.0 0.00 0.00 0.00 95 1022.9
20260831060316 74 338 2.0 2.0 0.00 0.00 0.00 95 1022.6
20260831055815 75 335 2.0 2.0 0.00 0.00 0.00 95 1022.7
20260831055311 75 342 1.0 2.0 0.00 0.00 0.00 95 1022.7
20260831054806 74 329 2.0 2.0 0.00 0.00 0.00 95 1022.7
20260831054301 75 335 2.0 2.0 0.00 0.00 0.00 95 1022.6
20260831053800 74 330 2.0 2.0 0.00 0.00 0.00 95 1022.5
20260831053258 75 331 2.0 2.0 0.00 0.00 0.00 95 1022.7
20260831052753 75 343 2.0 2.0 0.00 0.00 0.00 95 1022.6
20260831052252 75 341 1.0 2.0 0.00 0.00 0.00 95 1022.6
20260831051750 75 329 2.0 2.0 0.00 0.00 0.00 94 1022.5
20260831051249 75 325 2.0 2.0 0.00 0.00 0.00 94 1022.4
20260831050744 75 340 2.0 2.0 0.00 0.00 0.00 94 1022.4
20260831050243 75 332 2.0 2.0 0.00 0.00 0.00 94 1022.6
20260831045733 75 332 2.0 2.0 0.00 0.00 0.00 94 1022.7
20260831045232 76 334 2.0 2.0 0.00 0.00 0.00 93 1022.7
20260831044727 75 329 2.0 2.0 0.00 0.00 0.00 93 1023.1
20260831044222 75 338 2.0 2.0 0.00 0.00 0.00 93 1022.7
20260831043718 76 336 1.0 2.0 0.00 0.00 0.00 93 1022.7
20260831043213 75 331 2.0 2.0 0.00 0.00 0.00 92 1022.9
20260831042712 75 335 2.0 2.0 0.00 0.00 0.00 92 1022.9
20260831042208 75 335 2.0 2.0 0.00 0.00 0.00 92 1022.6
20260831041702 75 341 2.0 3.0 0.00 0.00 0.00 91 1022.5
20260831041156 75 336 2.0 2.0 0.00 0.00 0.00 92 1022.7
20260831040651 76 338 2.0 2.0 0.00 0.00 0.00 91 1022.7
20260831040150 76 334 2.0 2.0 0.00 0.00 0.00 91 1022.6
20260831035649 76 331 2.0 2.0 0.00 0.00 0.00 91 1022.5
20260831035149 76 341 2.0 2.0 0.00 0.00 0.00 90 1022.7
20260831034648 76 326 2.0 2.0 0.00 0.00 0.00 90 1022.7
20260831034144 76 338 2.0 2.0 0.00 0.00 0.00 91 1022.6
20260831033640 76 344 2.0 2.0 0.00 0.00 0.00 90 1022.6
20260831033135 76 336 2.0 3.0 0.00 0.00 0.00 90 1022.5
20260831032634 76 324 2.0 3.0 0.00 0.00 0.00 90 1022.7
20260831032130 76 334 2.0 3.0 0.00 0.00 0.00 90 1022.7
20260831031630 76 330 2.0 3.0 0.00 0.00 0.00 89 1022.6
20260831031129 77 337 2.0 2.0 0.00 0.00 0.00 89 1022.7
20260831030628 76 330 2.0 2.0 0.00 0.00 0.00 89 1022.5
20260831030127 77 338 1.0 2.0 0.00 0.00 0.00 89 1022.6
20260831025626 77 328 2.0 2.0 0.00 0.00 0.00 88 1022.7
20260831025121 77 332 2.0 2.0 0.00 0.00 0.00 88 1022.9
20260831024617 77 329 2.0 2.0 0.00 0.00 0.00 88 1022.9
20260831024116 77 352 1.0 2.0 0.00 0.00 0.00 87 1022.7
20260831023614 78 325 2.0 2.0 0.00 0.00 0.00 88 1022.6
20260831023114 77 341 2.0 2.0 0.00 0.00 0.00 87 1022.7
20260831022614 77 334 2.0 3.0 0.00 0.00 0.00 87 1022.6
20260831022109 77 331 2.0 3.0 0.00 0.00 0.00 87 1022.4
20260831021608 78 333 2.0 3.0 0.00 0.00 0.00 87 1022.5
20260831021104 78 340 2.0 2.0 0.00 0.00 0.00 87 1022.5
20260831020600 78 330 2.0 3.0 0.00 0.00 0.00 87 1022.5
20260831020055 78 335 2.0 3.0 0.00 0.00 0.00 87 1022.3
20260831015550 78 342 2.0 2.0 0.00 0.00 0.00 87 1022.4
20260831015045 78 342 2.0 2.0 0.00 0.00 0.00 86 1022.2
20260831014540 78 335 2.0 2.0 0.00 0.00 0.00 86 1022.2
20260831014036 79 349 2.0 3.0 0.00 0.00 0.00 86 1022.0
20260831013532 79 334 2.0 2.0 0.00 0.00 0.00 86 1021.9
20260831013031 79 341 2.0 2.0 0.00 0.00 0.00 85 1022.0
20260831012526 79 331 1.0 2.0 0.00 0.00 0.00 85 1022.0
20260831012021 80 322 2.0 2.0 0.00 0.00 0.00 85 1021.9
20260831011520 79 338 2.0 3.0 0.00 0.00 0.00 85 1021.8
20260831011016 79 341 2.0 2.0 0.00 0.00 0.00 85 1021.9
20260831010516 79 338 2.0 2.0 0.00 0.00 0.00 84 1021.7
20260831010013 79 337 2.0 3.0 0.00 0.00 0.00 84 1021.6
20260831005508 80 346 2.0 3.0 0.00 0.00 0.00 83 1021.7
20260831005006 80 334 2.0 2.0 0.00 0.00 0.00 82 1021.7
20260831004504 80 330 2.0 2.0 0.00 0.00 0.00 83 1021.5
20260831003959 81 333 1.0 2.0 0.00 0.00 0.00 82 1021.4
20260831003455 81 336 2.0 3.0 0.00 0.00 0.00 82 1021.4
20260831002954 81 334 2.0 2.0 0.00 0.00 0.00 81 1021.4
20260831002454 82 349 2.0 2.0 0.00 0.00 0.00 82 1021.4
20260831001949 82 340 2.0 2.0 0.00 0.00 0.00 81 1021.2
20260831001444 82 342 1.0 2.0 0.00 0.00 0.00 80 1021.3
20260831000941 83 339 1.0 1.0 0.00 0.00 0.00 77 1021.2
20260831000437 85 6 1.0 1.0 0.00 0.00 0.00 74 1021.3
20260830235935 87 122 2.0 2.0 0.00 0.00 0.00 68 1021.2
20260830235430 87 120 1.0 2.0 0.00 0.00 0.00 70 1021.5
20260830234925 87 119 2.0 2.0 0.00 0.00 0.00 67 1021.5
20260830234420 87 127 2.0 3.0 0.00 0.00 0.00 70 1021.3
20260830233916 87 126 2.0 4.0 0.00 0.00 0.00 69 1021.3
20260830233411 87 126 3.0 4.0 0.00 0.00 0.00 67 1021.4
20260830232907 87 133 3.0 4.0 0.00 0.00 0.00 65 1021.4
20260830232403 88 132 4.0 4.0 0.00 0.00 0.00 65 1021.4
20260830231859 88 131 3.0 4.0 0.00 0.00 0.00 68 1021.3
20260830231354 88 131 4.0 4.0 0.00 0.00 0.00 67 1021.2
20260830230853 88 133 4.0 6.0 0.00 0.00 0.00 64 1021.4
20260830230349 89 107 2.0 2.0 0.00 0.00 0.00 65 1021.4
20260830225848 89 31 1.0 2.0 0.00 0.00 0.00 66 1021.2
20260830225344 89 82 1.0 3.0 0.00 0.00 0.00 64 1021.4
20260830224838 90 115 2.0 2.0 0.00 0.00 0.00 63 1021.3
20260830224332 90 111 1.0 2.0 0.00 0.00 0.00 66 1021.2
20260830223829 89 93 2.0 2.0 0.00 0.00 0.00 63 1021.4
20260830223325 89 93 2.0 3.0 0.00 0.00 0.00 63 1021.2
20260830222824 90 119 1.0 2.0 0.00 0.00 0.00 63 1021.4
20260830222320 90 149 2.0 2.0 0.00 0.00 0.00 60 1021.3
20260830221815 89 116 2.0 2.0 0.00 0.00 0.00 63 1021.3
20260830221313 89 122 2.0 3.0 0.00 0.00 0.00 60 1021.3
20260830220812 89 137 2.0 3.0 0.00 0.00 0.00 59 1021.1
20260830220312 89 147 2.0 3.0 0.00 0.00 0.00 65 1021.5
20260830215810 89 116 2.0 2.0 0.00 0.00 0.00 64 1021.4
20260830215305 89 129 2.0 2.0 0.00 0.00 0.00 64 1021.3
20260830214800 89 145 2.0 3.0 0.00 0.00 0.00 63 1021.5
20260830214254 89 138 3.0 4.0 0.00 0.00 0.00 63 1021.4
20260830213754 89 143 2.0 3.0 0.00 0.00 0.00 65 1021.4
20260830213249 90 123 2.0 2.0 0.00 0.00 0.00 65 1021.4
20260830212745 89 115 3.0 4.0 0.00 0.00 0.00 66 1021.5
20260830212241 91 104 2.0 2.0 0.00 0.00 0.00 63 1021.4
20260830211740 92 148 0.0 0.0 0.00 0.00 0.00 58 1021.4
20260830211239 90 85 2.0 2.0 0.00 0.00 0.00 59 1021.4